PSLV R/B, 40548

Orbit data source: Space-Track

PSLV R/B, 40548 is space debris in HEO originally from a launch on Sat, 28 Mar 2015 UTC launched from the Sirharikota (SRI). Debris objects in space refer to the collection of defunct objects orbiting the Earth. Examples of debris include non-operational satellites, rocket bodies, and fragments generated from explosions, collisions, or faulty payload assembly.

Loading next visibility...
Identifier
40548, 2015-018B
Orbit
HEO
Country
Flag of ININ / IND
Related business
Manufacturer
VSSC/LPSC
Mission
Spacecraft
Bus & Motor
PS-4, Unknown motor
Mass
920 kg wet, 920 kg dry
Launch date (UTC)
2015-03-28 (11 years ago)
Launch vehicle
Unknown
Launch site
Sirharikota (SRI)
Object type
Payload
Rocket body
Debris
Shape & HBR
Cyl + Cyl + 2 Nozzle, 1.6 m
Radar Cross Section
3.727 m², Large (>1 m²)

Expand to show TLE details & history
Last TLE update: 14 hours ago

TLE from 14 hours ago
0 PSLV R/B
1 40548U 15018B   25301.41443357  .00018917  00000-0  19248-2 0  9990
2 40548  19.1717  13.1500 5792107 236.1605  54.9335  4.38884055158315
Epoch: 2025-10-28T09:56Z
TLE epoch observation values (Epoch: 2025-10-28T09:56:47.060Z)
Latitude
0.00009°
Longitude
-173.05468°
Altitude
9,085.911 km
Speed
5.124 km/s
True Right ascension
00h 52m 34s
True Declination
0° 00' 00"
Sunlit
Object was in full shadow at epoch
Visualization orbit readout
Latitude
Unknown
Longitude
Unknown
Altitude
Unknown
Speed
Unknown
Apparent Right ascension
Unknown
Apparent Declination
Unknown
Sunlit
N/A
Visualization observer readout
Local Sidereal Time
19:20:41
Azimuth
Unknown
Elevation
Unknown
Doppler factor
Unknown
Orbital elements
Apogee altitude
18,513.962 km
Perigee altitude
254.498 km
Semi-major axis
15,762.367 km
Eccentricity
0.57921
Inclination
19.1717°
RAAN
13.15°
Arg. of periapsis
236.1605°
True anomaly
123.83248°
Mean anomaly
54.9335°
Eccentric anomaly
88.10161°
Mean motion
1.09676 °/min
Orbital period
328.24 mins
BSTAR
0.0019248
Loading maneuver chart data...
Computing Atmospheric mass density...
Loading historical data...
Loading historical data...
Loading historical data...
Loading historical data...
Loading historical data...
Loading historical data...
Loading historical data...
Other satellites on launch #18 in the year 2015 (2015-03-28 UTC)

Documentation

Showing up to 5 results
|